User: anonymous
Location: Unspecified
(0.0000°N, 0.0000°E)
Time: 19:40:08
(UTC+02:00)
Language:

Centaur D-1AR AC-41 - Orbit

View from above orbital plane
View from above orbital plane
View from above satellite
View from above satellite

Ground track
Ground track

The orbit data is extracted from the following two-line orbital elements,

1 10976U 78068B   14233.44437645  .00000035  00000-0  77047-3 0  4409
2 10976 021.4237 199.1417 7159194 344.9996 001.5575 02.22288104293316
Epoch (UTC): 21 August 2014 10:39:54
Eccentricity: 0.7159194
inclination: 21.4237°
perigee height: 667 km
apogee height: 36177 km
right ascension of ascending node: 199.1417°
argument of perigee: 344.9996°
revolutions per day: 2.22288104
mean anomaly at epoch: 1.5575°
orbit number at epoch: 29331

The dashed part of the orbit path shows where the satellite is in the earth's shadow,  

DLR